Wind_Speed
60 61 61 61 61 61 61 62 63 63 64 65 66 66 68 70 72 73 75 77 77 77 76 76 75 74 73 73 74 76 77 78 79 80 80 80 81 82 83 83 83 84 84 84 84 84 83 82 81 81 80 81 82 84 86 87 88 88 88 88 88 87
61 61 61 61 61 62 62 63 64 65 66 67 69 71 73 75 77 78 79 79 79 79 79 78 77 76 76 76 77 78 79 80 80 81 82 83 83 84 84 84 85 85 86 86 87 88 88 88 87 86 85 84 85 85 86 87 88 89 90 90 90 90
63 63 63 64 65 66 66 67 67 68 69 71 73 74 75 77 78 79 80 81 81 81 80 79 79 78 79 80 82 83 84 84 85 85 86 86 86 86 86 86 86 86 86 86 87 88 89 89 90 90 89 89 90 90 90 89 89 89 89 90 90 90
66 66 67 68 69 69 69 70 70 71 72 73 75 76 77 79 80 81 82 83 83 83 83 83 83 83 84 85 86 86 87 87 88 88 88 88 88 88 88 88 87 87 86 87 87 88 89 90 91 92 93 94 94 95 95 95 94 92 91 90 90 90
68 69 70 71 71 72 73 74 75 76 77 78 79 80 80 81 82 83 84 85 86 87 87 88 88 88 88 87 88 88 88 88 89 89 90 90 90 90 90 90 90 90 89 89 89 89 89 90 91 92 93 94 95 96 97 98 98 97 95 93 92 91
70 71 71 73 74 75 77 78 79 80 81 82 82 83 83 84 85 85 86 87 88 88 89 89 90 90 90 90 90 90 90 90 91 91 91 92 92 92 93 93 93 93 93 92 92 92 93 93 93 92 93 93 94 95 96 98 100 99 98 96 95 93
71 73 74 76 77 78 79 80 81 82 83 84 85 85 86 86 86 87 88 88 89 89 90 91 92 92 93 93 93 93 93 93 93 94 94 94 95 95 96 97 97 97 97 97 97 97 97 97 97 97 96 96 97 97 97 98 100 101 101 100 98 96
74 75 76 77 78 79 80 80 81 82 83 84 85 86 87 88 88 89 90 91 91 92 92 93 94 95 95 96 96 97 97 97 97 97 97 98 98 99 100 100 101 101 101 101 102 102 102 102 101 101 101 101 101 101 101 101 101 102 103 103 103 101
75 76 77 78 79 80 80 81 82 83 84 86 87 88 88 90 91 92 93 93 93 94 94 95 95 96 97 97 98 99 99 100 100 100 100 100 101 101 101 102 102 102 102 102 102 102 103 103 103 104 105 106 106 106 106 106 105 105 105 106 106 106
75 76 77 78 79 80 81 83 84 85 86 87 88 89 90 91 92 93 94 94 94 95 95 96 96 97 97 98 98 98 98 99 99 99 98 98 98 99 99 99 99 99 99 99 99 100 100 100 101 101 103 104 106 108 109 109 109 109 109 109 109 110
75 76 77 78 80 81 82 84 85 86 87 88 89 90 91 91 92 93 94 94 95 95 95 96 96 95 95 95 94 94 93 93 92 92 91 91 91 91 92 92 93 93 94 94 94 95 95 96 96 96 97 99 101 103 105 107 109 110 111 111 111 111
76 77 78 80 81 82 83 84 86 87 87 88 89 90 91 92 92 93 93 93 94 94 93 93 92 91 90 89 88 87 86 85 84 83 83 82 82 82 83 83 84 85 86 86 87 88 88 89 90 90 91 93 95 97 99 101 103 105 108 109 111 111
78 79 80 81 82 83 84 85 86 87 87 88 89 90 90 90 90 90 90 89 88 87 86 84 83 81 80 79 78 77 76 76 75 74 74 73 73 74 75 75 76 76 77 79 80 81 82 83 83 85 86 88 90 92 94 96 98 99 101 103 106 108
79 80 81 82 83 84 84 85 85 86 86 86 86 86 85 85 83 82 81 79 78 77 75 74 73 72 71 70 69 68 68 68 67 68 68 68 68 69 70 70 71 72 73 75 76 76 77 77 78 80 82 83 85 87 90 92 94 95 96 98 100 102
80 81 82 82 83 83 83 83 82 82 82 82 81 80 79 77 75 73 72 71 70 69 69 68 67 66 65 65 64 64 64 64 65 66 66 67 68 68 69 70 71 72 73 75 75 76 75 76 77 79 80 81 82 84 86 88 89 90 92 93 94 96
80 81 81 81 81 81 80 80 79 78 78 77 76 74 72 69 68 67 67 66 66 66 65 65 64 63 63 63 63 64 65 66 67 68 69 69 70 71 71 72 73 74 75 76 77 76 75 76 77 78 79 79 81 82 83 84 84 85 86 87 88 90
80 81 81 80 80 79 78 77 76 75 74 72 70 68 66 65 65 64 64 64 63 63 62 62 62 62 62 63 65 66 67 69 70 70 71 72 72 72 73 73 73 74 74 75 75 75 74 74 76 77 77 78 79 80 81 81 81 81 82 82 83 85
80 79 79 78 77 76 74 73 71 70 68 66 65 64 63 63 63 62 62 62 61 61 61 61 62 63 65 66 67 68 69 70 71 71 72 72 71 72 72 72 72 73 73 73 74 75 74 74 76 77 77 78 78 79 79 80 80 79 79 78 78 80
77 76 75 73 71 70 68 66 65 64 63 62 61 61 61 61 61 61 61 60 60 61 62 63 64 66 67 68 69 70 70 70 70 70 70 70 70 70 70 71 71 73 74 74 74 75 74 73 74 75 75 74 75 76 77 77 76 75 74 73 73 74
71 69 67 65 64 62 61 60 60 60 60 59 59 60 60 60 59 59 60 60 61 62 64 65 67 68 69 69 69 69 69 68 68 68 69 69 68 69 70 71 72 73 73 73 72 72 71 70 69 70 70 69 70 70 70 69 67 66 65 64 64 66
64 61 60 58 57 57 57 57 57 58 58 58 58 58 58 58 58 59 60 61 63 64 66 67 68 69 69 69 69 68 68 67 67 67 68 68 69 69 70 72 72 71 70 69 68 68 67 65 63 63 64 63 63 63 62 60 57 56 55 55 55 56
56 55 54 54 53 54 54 55 56 56 57 57 57 57 57 57 58 59 61 63 64 65 67 68 69 69 69 69 68 67 67 67 67 67 68 68 69 69 70 70 69 67 66 65 64 62 61 60 58 59 60 59 57 56 54 52 50 50 50 51 52 53
51 51 51 51 52 52 53 54 54 55 55 56 56 57 57 58 60 61 62 64 65 66 67 68 69 69 69 68 67 66 66 67 67 67 68 68 68 68 68 67 66 64 62 60 58 56 56 56 56 57 57 54 51 49 48 47 48 49 50 51 54 56
49 50 50 51 51 52 52 53 53 54 55 56 56 57 58 59 61 62 63 64 65 67 68 68 69 68 67 67 66 66 66 67 67 68 68 67 67 66 66 64 62 60 57 53 51 51 52 54 55 55 54 50 47 47 47 47 48 50 52 53 55 57
49 50 50 51 51 52 52 53 53 54 55 56 57 58 59 60 61 62 63 65 66 67 68 67 67 66 66 66 66 66 66 66 67 67 66 66 65 65 63 62 59 55 50 48 47 49 50 51 53 53 51 49 47 47 48 49 50 52 53 54 54 56
48 49 50 51 52 52 53 53 54 55 56 57 58 58 59 60 62 63 64 65 66 66 66 66 65 65 65 65 66 66 66 66 66 65 65 65 65 63 61 58 54 49 46 45 45 46 47 49 51 52 52 49 48 48 49 51 52 53 53 54 55 56
49 50 51 51 52 52 53 54 55 56 57 58 58 59 60 61 62 63 64 65 65 65 64 64 63 64 64 65 65 65 65 65 64 63 63 64 63 62 59 54 48 45 44 44 43 43 46 48 50 52 53 51 50 50 51 52 53 54 55 56 57 57
51 52 52 52 53 53 54 55 55 56 57 58 59 59 60 61 62 63 63 63 63 63 63 63 63 64 64 64 65 64 64 64 63 62 62 62 61 59 55 48 43 43 43 42 42 43 45 48 50 51 51 50 50 52 53 54 55 55 56 56 57 58
53 53 54 54 54 55 55 56 56 57 58 59 59 60 61 61 62 62 62 62 62 62 63 63 63 63 63 63 63 63 63 63 62 61 61 61 59 56 49 43 42 43 43 42 43 44 46 47 49 50 49 47 47 49 51 53 54 55 55 56 56 57
54 54 54 55 55 55 56 56 57 58 59 59 60 60 61 61 62 61 61 62 62 62 63 63 63 62 62 61 61 62 62 61 61 60 60 59 57 50 44 41 42 43 43 43 44 45 45 46 48 49 48 46 45 45 47 49 50 52 53 54 54 56
53 54 54 55 55 55 56 57 58 59 59 60 60 60 61 61 61 61 61 62 62 62 62 62 62 61 61 60 60 61 60 60 60 59 58 56 52 45 41 40 41 42 42 43 44 45 45 46 47 48 47 46 45 45 45 46 47 49 50 51 53 55
53 54 55 55 55 55 56 57 58 59 59 60 60 60 60 61 61 61 61 62 62 62 61 61 60 60 60 60 59 59 58 58 58 59 56 51 45 41 40 41 41 42 43 44 46 47 48 48 48 47 47 46 46 46 47 48 48 49 50 51 52 54
54 54 55 55 55 55 56 57 58 59 59 59 60 60 60 61 61 61 61 61 60 60 60 59 59 58 58 58 58 58 56 55 55 56 53 47 40 39 40 41 41 43 45 47 48 49 49 49 49 47 47 47 47 47 48 49 49 50 50 51 52 52
54 55 54 54 54 55 55 57 58 58 58 59 59 60 60 60 60 59 59 58 57 57 56 56 56 56 56 57 57 56 55 54 52 49 45 43 40 39 40 41 41 43 46 48 49 49 49 49 48 47 47 47 48 49 50 50 50 50 50 50 51 51
54 54 53 53 54 54 55 57 58 58 58 58 59 59 59 58 58 57 56 55 54 53 53 53 54 55 55 55 55 54 54 53 50 43 37 36 38 39 40 42 43 44 45 46 48 48 48 48 48 47 47 47 48 49 51 51 50 50 49 49 49 49
53 53 53 53 54 55 56 57 57 57 57 57 57 57 56 56 55 54 53 53 52 52 52 52 53 54 54 54 53 52 51 49 45 39 33 32 34 36 39 42 44 45 45 45 45 46 47 48 48 48 47 48 48 50 51 50 49 48 48 47 47 47
53 53 53 54 54 55 56 56 57 57 56 56 56 55 54 54 53 52 52 51 51 51 51 52 52 52 52 52 50 49 48 45 40 35 32 32 33 35 37 41 43 44 44 43 43 45 46 47 48 49 49 49 49 50 50 50 47 45 45 45 45 46
54 54 54 54 54 54 55 55 56 55 55 55 54 53 53 52 52 52 51 51 51 51 51 51 51 51 51 50 48 46 45 42 36 32 31 32 33 35 37 40 41 42 42 42 43 44 46 47 48 49 50 50 50 50 50 49 46 43 41 41 42 43
Wind_Direction
276 276 276 276 276 276 275 275 274 274 273 272 272 272 273 273 274 274 274 276 277 278 278 278 277 277 275 274 272 272 272 272 272 272 271 271 270 270 270 270 270 270 270 271 271 271 272 271 270 268 267 266 265 265 264 264 263 263 263 262 262 262
276 276 275 275 275 275 274 273 273 273 272 272 272 273 273 275 276 277 277 278 279 279 279 278 278 277 276 275 275 274 274 274 273 273 273 273 272 271 270 270 270 270 270 270 270 270 271 272 272 271 270 269 268 267 265 264 263 263 262 262 262 262
274 274 274 274 274 274 274 273 273 273 273 273 274 275 276 276 277 277 278 279 279 280 279 279 278 277 277 276 276 276 276 276 276 276 275 275 275 274 273 272 272 271 270 269 269 269 269 269 270 270 270 271 271 271 269 267 265 263 262 261 261 261
273 273 274 274 274 275 274 274 274 275 275 276 276 277 277 277 277 278 278 279 279 280 280 279 279 279 278 278 277 277 277 277 277 277 277 277 276 276 276 275 274 273 272 271 270 269 268 268 267 268 268 269 269 270 270 270 269 267 265 263 262 260
273 273 274 274 275 275 276 276 276 277 278 278 278 279 279 279 279 279 279 279 279 280 280 280 280 280 279 279 278 278 277 277 277 277 276 276 276 275 275 275 274 274 273 273 272 271 270 269 268 267 267 267 267 266 267 268 268 268 268 266 265 263
273 274 274 275 276 276 277 278 278 279 280 280 280 280 280 280 280 279 279 279 279 279 280 280 280 280 280 280 279 279 278 278 277 277 276 276 276 275 275 274 274 273 272 272 272 271 271 270 270 269 268 267 266 265 265 265 265 266 266 266 266 265
274 275 275 276 277 278 279 279 280 280 281 281 281 281 281 281 281 281 281 280 280 280 280 281 281 281 281 281 281 280 280 279 279 278 278 277 277 277 277 276 276 275 274 273 273 272 271 270 270 269 268 268 267 266 264 264 263 264 264 264 264 264
277 278 278 279 280 281 281 282 282 283 283 283 283 283 283 283 283 283 283 283 283 283 283 282 282 282 282 282 282 282 282 281 281 280 280 279 279 279 279 278 278 278 277 276 276 275 273 272 271 270 269 268 267 266 265 264 263 262 262 262 262 263
280 281 281 282 282 283 283 284 284 284 284 284 284 284 284 284 284 284 284 284 284 284 283 283 283 283 283 283 283 283 283 283 283 282 282 281 281 280 280 279 279 278 278 277 277 276 275 274 273 272 271 270 269 268 267 265 264 262 261 261 261 261
282 283 283 284 284 284 284 284 284 284 284 284 284 284 284 284 284 284 284 284 284 284 284 284 284 285 285 285 285 284 284 284 284 283 283 282 282 281 281 280 279 279 278 278 277 276 275 275 274 273 272 271 270 269 268 267 266 264 263 261 260 260
284 284 284 285 285 285 284 284 284 284 284 284 284 284 284 284 284 285 285 285 286 286 286 286 286 286 286 286 286 285 285 285 284 284 284 283 283 282 282 281 280 280 279 278 277 277 276 275 274 273 272 271 270 269 268 267 266 265 264 263 262 261
285 285 285 285 284 284 284 284 284 284 284 285 285 285 285 285 286 286 287 287 287 287 287 287 287 287 286 286 286 286 286 286 286 286 285 285 285 284 283 283 282 281 280 279 278 278 277 277 276 275 274 273 272 270 269 267 266 265 265 264 263 262
285 285 285 285 285 285 285 286 286 286 286 286 286 286 287 287 287 288 288 288 288 288 288 288 287 287 287 287 287 287 287 287 287 287 287 287 286 286 285 285 284 283 282 281 280 279 279 278 278 277 277 276 275 274 272 270 268 267 266 265 264 263
287 287 287 287 287 287 287 287 287 287 287 287 287 287 287 287 287 287 287 287 287 287 287 287 287 287 287 288 288 288 288 288 288 288 287 287 286 286 285 285 285 284 283 282 282 281 280 280 279 278 278 277 277 276 275 274 272 271 269 268 266 265
288 288 289 289 288 288 288 288 288 287 287 287 287 287 287 286 286 285 285 285 285 285 285 286 286 287 287 288 288 288 288 288 288 288 287 287 286 286 286 285 285 285 284 284 283 283 282 282 281 280 279 278 277 277 276 275 275 274 273 271 270 268
289 289 289 288 288 288 288 288 288 287 287 287 286 286 285 285 284 284 284 284 285 286 286 287 287 288 288 289 289 290 290 290 290 290 289 289 288 288 287 287 286 286 286 285 285 285 284 284 283 281 280 279 278 277 277 276 275 275 274 273 272 271
289 289 289 289 289 289 289 288 288 287 287 286 286 285 285 285 285 285 286 287 287 288 288 289 289 290 290 291 291 291 291 291 291 291 290 290 290 289 289 288 288 287 287 287 286 286 286 285 284 283 282 281 280 279 279 278 276 275 274 273 273 272
289 290 290 290 290 290 289 289 288 287 287 286 286 286 286 286 287 288 289 289 289 290 290 290 291 291 292 292 292 292 292 292 292 291 291 291 290 290 290 290 289 289 288 288 288 288 288 287 286 285 284 283 282 281 280 279 278 278 277 276 275 274
291 291 291 290 290 289 289 288 288 287 287 286 287 287 287 288 289 290 290 290 290 290 291 291 292 292 292 293 293 293 292 292 292 291 291 291 291 291 291 291 290 290 290 290 290 290 289 288 287 286 285 285 284 282 281 281 281 280 280 279 277 276
292 291 291 290 289 288 287 287 286 286 286 286 287 287 288 289 289 290 290 290 290 291 291 292 292 293 293 293 293 293 292 292 292 292 292 291 291 291 291 291 291 291 291 292 291 290 289 289 288 287 286 285 284 283 282 282 282 281 281 279 278 277
291 290 289 288 287 286 286 285 285 285 285 286 286 287 288 288 288 288 289 289 290 290 291 292 293 293 294 294 293 293 292 292 292 292 292 292 292 292 292 292 292 293 293 293 292 291 291 290 289 288 287 286 284 283 283 282 282 282 281 281 280 279
290 288 287 286 285 285 284 284 284 284 285 285 285 286 286 287 287 287 288 289 290 290 291 292 293 294 294 294 293 293 293 293 293 293 293 293 294 294 294 294 294 295 295 294 293 292 292 291 291 290 289 287 285 283 282 282 282 283 283 283 283 282
287 285 285 284 283 283 282 283 283 283 284 284 285 285 286 286 287 287 288 289 290 291 292 293 294 294 294 294 293 293 293 294 294 294 294 294 295 295 295 295 296 296 296 294 293 293 293 294 294 293 291 288 284 282 282 283 285 285 286 287 287 287
284 284 283 283 283 283 283 284 284 284 284 284 285 285 286 286 287 288 289 290 291 292 293 294 294 294 294 294 294 294 294 295 295 295 296 296 296 296 296 297 298 297 295 294 293 294 296 298 298 295 291 287 284 283 284 285 287 288 290 291 292 291
283 284 284 284 285 285 285 285 285 285 285 285 285 286 286 287 288 289 290 291 292 293 294 294 295 294 294 294 295 295 295 295 296 296 297 297 297 297 297 298 298 296 293 293 294 297 300 302 301 299 294 288 285 284 286 287 289 290 292 294 295 295
284 284 284 285 285 285 285 286 285 286 285 286 286 286 287 288 289 290 291 292 293 294 294 295 295 295 295 295 295 295 295 296 296 297 298 298 298 297 298 299 297 293 292 293 296 300 304 306 306 303 298 290 286 286 286 287 288 290 292 294 296 297
285 284 284 285 285 285 286 286 286 286 286 286 287 288 288 289 290 291 293 293 294 295 295 295 295 295 295 295 295 296 296 296 297 298 298 298 297 298 299 297 294 292 293 296 299 303 307 309 309 307 301 293 288 286 286 286 288 290 292 294 296 298
286 285 286 286 287 287 287 287 287 287 287 288 289 289 290 291 292 293 294 294 295 295 295 296 296 296 296 296 296 296 296 297 298 298 298 297 297 298 298 294 292 293 295 297 301 305 308 309 309 307 303 297 291 287 287 287 289 290 293 295 297 299
286 286 287 287 288 288 289 289 289 288 289 289 290 291 292 293 294 294 295 295 296 296 296 296 296 295 295 295 295 296 296 297 298 298 297 296 297 298 296 292 293 295 296 298 302 305 307 308 307 305 304 302 297 293 290 289 289 289 291 293 295 297
286 287 287 288 289 289 290 290 290 290 290 291 292 293 294 295 295 296 296 296 296 296 296 296 295 295 295 294 295 295 296 297 298 297 297 297 298 296 292 292 294 295 296 299 302 303 305 306 305 304 304 303 302 299 296 293 291 290 290 291 293 295
286 287 288 289 290 290 290 290 290 291 291 293 294 294 295 295 296 296 297 297 297 296 296 295 294 294 294 294 294 295 296 297 297 297 297 298 297 294 292 293 294 295 296 300 303 304 305 306 306 305 304 303 303 303 302 300 298 295 293 292 293 295
287 288 289 290 290 290 291 290 291 291 293 294 295 295 296 296 296 297 296 296 296 295 294 294 293 293 293 293 294 294 296 297 298 297 298 296 293 292 294 296 297 298 301 303 305 306 307 308 308 307 307 306 305 305 305 304 303 302 300 297 296 298
289 290 290 291 291 291 291 291 291 292 294 294 295 296 296 297 297 296 296 295 294 293 293 292 292 292 293 293 294 295 296 296 297 298 298 295 291 293 296 298 300 302 304 305 305 306 308 308 309 309 309 308 308 307 307 306 305 305 303 300 299 301
291 291 292 292 291 291 291 291 292 293 294 295 296 297 297 297 297 296 295 294 293 293 292 292 292 293 293 294 295 296 296 295 295 296 295 293 293 296 297 298 301 303 304 305 305 306 307 308 309 310 311 310 310 309 309 307 306 305 303 302 301 303
292 292 292 291 291 291 291 291 292 294 295 296 297 298 298 297 297 296 295 294 293 293 293 293 293 293 294 295 296 297 296 296 295 291 286 286 293 298 299 300 302 303 304 304 305 306 308 309 311 312 312 312 311 310 310 309 307 305 303 302 302 303
293 292 291 291 291 291 292 292 294 295 296 297 298 298 298 297 297 296 296 295 294 293 293 293 293 294 295 296 297 297 297 296 294 289 281 281 287 294 299 303 305 305 305 305 306 308 310 311 312 313 313 312 312 311 311 310 309 306 303 302 302 304
292 291 290 290 291 292 293 293 294 296 297 298 299 298 298 298 297 297 296 296 295 295 295 295 295 295 296 297 298 298 297 295 291 286 284 285 287 290 296 301 304 305 307 308 309 310 312 313 313 314 314 313 312 311 311 311 310 306 303 302 302 305
290 289 290 290 291 292 293 293 294 296 298 298 299 299 298 298 298 298 298 297 297 297 297 297 297 297 297 298 298 298 296 294 288 284 285 289 291 293 298 301 303 305 308 310 311 312 314 315 315 315 315 315 314 313 312 312 311 307 303 301 302 305
Height
5682 5680 5679 5678 5676 5675 5674 5673 5673 5672 5671 5669 5668 5666 5664 5663 5661 5660 5659 5658 5657 5656 5655 5654 5653 5652 5650 5649 5648 5647 5645 5644 5643 5642 5642 5641 5640 5639 5638 5636 5635 5634 5632 5631 5630 5629 5628 5628 5627 5627 5627 5627 5626 5626 5625 5625 5625 5625 5625 5624 5624 5625
5673 5672 5670 5669 5668 5666 5665 5664 5663 5662 5661 5660 5658 5657 5655 5653 5651 5650 5648 5646 5645 5644 5643 5642 5641 5640 5639 5638 5636 5635 5634 5633 5632 5631 5630 5629 5628 5628 5627 5626 5625 5624 5622 5621 5619 5617 5616 5614 5614 5613 5613 5613 5613 5613 5613 5613 5612 5613 5613 5613 5613 5613
5665 5663 5661 5660 5658 5657 5656 5655 5654 5653 5652 5650 5648 5647 5645 5644 5642 5640 5637 5635 5634 5632 5631 5630 5630 5629 5627 5626 5625 5623 5622 5621 5620 5618 5617 5616 5615 5615 5614 5614 5613 5613 5612 5610 5608 5607 5605 5603 5602 5600 5599 5599 5598 5598 5598 5598 5599 5599 5600 5600 5601 5601
5656 5654 5652 5650 5649 5648 5647 5646 5644 5643 5642 5640 5638 5637 5635 5633 5631 5629 5627 5625 5623 5621 5619 5618 5617 5616 5615 5614 5613 5612 5610 5608 5607 5606 5604 5603 5602 5601 5601 5600 5600 5599 5599 5598 5596 5595 5594 5592 5591 5589 5588 5586 5585 5584 5583 5582 5582 5583 5585 5586 5587 5588
5647 5645 5644 5642 5640 5639 5637 5636 5635 5633 5632 5630 5628 5626 5624 5622 5620 5618 5616 5614 5612 5610 5608 5606 5605 5603 5602 5601 5600 5599 5597 5596 5595 5593 5592 5590 5589 5588 5587 5586 5586 5585 5584 5584 5583 5582 5581 5580 5579 5578 5576 5575 5573 5572 5571 5569 5568 5568 5569 5570 5571 5572
5639 5637 5635 5633 5631 5630 5628 5626 5625 5623 5621 5619 5617 5615 5612 5610 5609 5607 5604 5602 5600 5598 5596 5594 5592 5590 5589 5587 5586 5585 5584 5583 5581 5580 5578 5577 5576 5574 5573 5572 5571 5570 5570 5569 5568 5568 5567 5566 5566 5565 5564 5562 5560 5559 5558 5557 5556 5555 5556 5556 5557 5558
5630 5628 5626 5624 5622 5621 5619 5617 5615 5612 5610 5607 5605 5603 5600 5598 5596 5594 5592 5590 5588 5586 5584 5581 5579 5577 5575 5573 5572 5570 5569 5568 5567 5565 5564 5563 5561 5560 5558 5556 5555 5554 5554 5553 5553 5552 5551 5551 5550 5550 5549 5548 5546 5544 5544 5543 5543 5542 5542 5543 5544 5544
5621 5619 5617 5615 5613 5611 5609 5607 5604 5601 5599 5596 5593 5591 5588 5585 5583 5580 5578 5576 5574 5572 5570 5568 5566 5564 5562 5559 5557 5555 5553 5552 5551 5550 5548 5547 5546 5544 5542 5541 5539 5537 5537 5536 5535 5534 5534 5534 5534 5533 5533 5531 5529 5528 5528 5528 5529 5529 5529 5530 5530 5531
5611 5609 5607 5605 5603 5601 5599 5596 5593 5591 5588 5585 5582 5579 5576 5573 5571 5567 5565 5563 5561 5559 5557 5554 5552 5550 5548 5546 5543 5540 5538 5536 5535 5533 5532 5530 5529 5527 5526 5524 5523 5521 5520 5519 5518 5517 5516 5516 5516 5516 5514 5513 5511 5510 5510 5511 5512 5513 5514 5515 5516 5517
5602 5599 5597 5595 5593 5591 5588 5586 5583 5580 5577 5573 5570 5568 5565 5562 5559 5556 5552 5550 5548 5546 5544 5541 5539 5537 5534 5531 5528 5526 5523 5521 5519 5518 5516 5514 5512 5510 5509 5507 5506 5505 5504 5502 5501 5499 5498 5498 5498 5498 5495 5493 5491 5490 5490 5492 5493 5495 5497 5499 5501 5502
5592 5590 5587 5585 5583 5581 5578 5575 5572 5569 5565 5562 5559 5556 5553 5550 5547 5543 5540 5538 5535 5533 5530 5528 5526 5523 5520 5516 5514 5511 5509 5507 5505 5503 5502 5500 5498 5496 5494 5493 5491 5490 5488 5486 5484 5483 5481 5480 5481 5480 5476 5473 5472 5472 5471 5472 5474 5475 5477 5479 5482 5485
5582 5580 5577 5575 5573 5569 5566 5564 5560 5557 5553 5550 5546 5543 5541 5538 5534 5531 5528 5525 5522 5519 5517 5515 5512 5509 5506 5503 5500 5498 5496 5495 5493 5491 5489 5487 5485 5483 5481 5480 5478 5476 5474 5472 5470 5468 5467 5465 5465 5463 5458 5455 5453 5452 5452 5454 5455 5457 5458 5460 5463 5466
5572 5569 5567 5564 5561 5557 5554 5551 5548 5544 5541 5537 5534 5531 5529 5526 5522 5518 5515 5512 5509 5506 5504 5502 5499 5496 5494 5491 5489 5487 5486 5484 5482 5480 5478 5476 5474 5472 5470 5468 5466 5464 5461 5458 5457 5456 5454 5454 5452 5447 5443 5441 5438 5434 5433 5434 5437 5440 5441 5442 5444 5447
5561 5558 5555 5552 5548 5545 5542 5539 5536 5533 5529 5525 5522 5520 5517 5514 5511 5508 5504 5501 5498 5496 5494 5492 5489 5487 5484 5482 5480 5478 5477 5475 5473 5470 5469 5467 5465 5462 5460 5458 5455 5453 5450 5446 5444 5444 5443 5442 5439 5434 5431 5429 5425 5421 5417 5417 5420 5422 5424 5426 5427 5429
5549 5546 5543 5540 5536 5533 5530 5527 5524 5521 5518 5514 5511 5509 5506 5504 5501 5498 5495 5492 5490 5488 5485 5483 5481 5479 5476 5474 5472 5470 5468 5466 5463 5461 5459 5457 5455 5452 5451 5448 5445 5442 5439 5435 5433 5432 5432 5430 5426 5421 5419 5416 5413 5409 5405 5404 5405 5406 5407 5409 5410 5410
5539 5536 5533 5529 5525 5522 5518 5515 5513 5510 5507 5503 5501 5498 5496 5493 5491 5488 5486 5484 5481 5479 5477 5475 5472 5470 5468 5465 5463 5461 5459 5456 5454 5451 5448 5447 5445 5442 5440 5437 5435 5432 5428 5424 5421 5420 5420 5417 5412 5408 5406 5403 5400 5396 5393 5392 5393 5392 5393 5394 5393 5392
5528 5525 5522 5518 5514 5511 5507 5503 5500 5497 5495 5492 5490 5487 5485 5483 5481 5479 5477 5475 5472 5470 5468 5465 5463 5461 5459 5457 5454 5452 5449 5446 5443 5441 5438 5436 5433 5431 5428 5426 5423 5420 5417 5413 5409 5408 5408 5405 5398 5395 5393 5389 5386 5383 5380 5379 5379 5378 5379 5380 5379 5377
5517 5514 5510 5507 5503 5499 5495 5491 5488 5486 5483 5481 5479 5477 5475 5473 5472 5470 5468 5465 5463 5460 5458 5456 5454 5452 5449 5447 5445 5442 5439 5436 5433 5430 5427 5425 5423 5420 5417 5414 5411 5408 5405 5402 5398 5395 5395 5393 5386 5381 5379 5376 5372 5369 5367 5365 5365 5365 5365 5367 5366 5364
5505 5502 5499 5496 5492 5488 5485 5481 5478 5476 5473 5472 5470 5468 5466 5465 5463 5461 5459 5456 5454 5452 5449 5447 5445 5442 5440 5438 5435 5432 5429 5426 5424 5420 5417 5414 5412 5409 5406 5403 5400 5397 5393 5391 5387 5383 5382 5381 5375 5369 5366 5364 5359 5356 5353 5352 5352 5352 5352 5352 5351 5349
5494 5491 5488 5485 5482 5479 5476 5473 5470 5467 5465 5464 5462 5460 5459 5458 5456 5453 5451 5448 5446 5443 5440 5438 5435 5433 5431 5428 5425 5422 5420 5417 5414 5410 5407 5404 5402 5400 5396 5392 5390 5387 5382 5379 5376 5371 5369 5368 5364 5357 5354 5352 5348 5343 5341 5340 5340 5340 5339 5339 5338 5336
5483 5481 5478 5475 5473 5470 5468 5465 5462 5460 5458 5457 5455 5453 5452 5450 5448 5446 5443 5440 5438 5435 5432 5429 5426 5424 5421 5419 5416 5413 5410 5407 5404 5401 5398 5394 5391 5389 5386 5382 5379 5377 5372 5368 5365 5360 5356 5355 5353 5348 5343 5341 5337 5333 5331 5330 5330 5330 5328 5328 5327 5326
5474 5472 5469 5467 5465 5463 5460 5458 5456 5454 5452 5450 5448 5447 5445 5443 5441 5438 5436 5433 5430 5427 5423 5420 5417 5415 5412 5409 5406 5403 5400 5397 5394 5391 5388 5385 5381 5378 5375 5371 5368 5366 5363 5358 5354 5351 5346 5343 5342 5338 5333 5330 5327 5323 5322 5321 5321 5321 5319 5318 5318 5317
5465 5463 5461 5460 5458 5456 5453 5451 5449 5447 5445 5443 5441 5440 5438 5435 5433 5430 5428 5425 5422 5418 5415 5412 5409 5406 5402 5399 5396 5394 5390 5387 5384 5381 5378 5375 5372 5368 5365 5362 5358 5356 5353 5349 5345 5342 5338 5334 5331 5328 5324 5320 5318 5315 5313 5313 5312 5311 5311 5310 5309 5307
5457 5455 5454 5452 5450 5448 5447 5445 5443 5441 5438 5436 5435 5433 5430 5428 5425 5422 5420 5416 5413 5410 5406 5403 5400 5396 5393 5390 5386 5384 5381 5377 5374 5371 5368 5365 5362 5359 5356 5353 5349 5346 5344 5341 5337 5334 5331 5326 5321 5318 5314 5311 5309 5306 5305 5304 5303 5302 5301 5301 5299 5297
5450 5448 5446 5445 5443 5441 5439 5437 5435 5433 5431 5429 5427 5425 5423 5421 5417 5414 5411 5408 5404 5401 5397 5394 5391 5387 5384 5380 5377 5375 5372 5368 5365 5361 5358 5355 5352 5349 5347 5344 5340 5337 5335 5334 5331 5327 5323 5318 5313 5308 5304 5302 5301 5299 5297 5296 5294 5293 5291 5290 5289 5286
5443 5441 5439 5438 5436 5434 5432 5430 5428 5426 5423 5422 5420 5418 5415 5413 5409 5406 5403 5399 5396 5392 5388 5385 5382 5378 5375 5371 5368 5366 5362 5359 5356 5353 5349 5345 5342 5340 5338 5335 5332 5329 5327 5326 5324 5320 5316 5311 5305 5300 5296 5294 5293 5291 5289 5287 5286 5284 5282 5280 5278 5276
5436 5434 5432 5430 5429 5427 5425 5423 5420 5418 5416 5414 5412 5410 5407 5404 5401 5398 5394 5390 5387 5383 5380 5377 5373 5370 5366 5363 5359 5357 5353 5350 5347 5344 5340 5337 5333 5331 5329 5327 5324 5322 5320 5318 5316 5313 5309 5304 5298 5293 5289 5286 5285 5284 5281 5279 5277 5275 5272 5269 5267 5265
5428 5426 5424 5423 5421 5419 5417 5415 5413 5410 5408 5406 5404 5401 5399 5396 5392 5389 5385 5381 5378 5374 5371 5368 5365 5361 5357 5354 5350 5348 5345 5341 5339 5336 5332 5328 5325 5323 5321 5319 5317 5315 5312 5310 5308 5305 5302 5298 5293 5288 5283 5279 5278 5276 5274 5271 5269 5266 5262 5259 5257 5254
5420 5418 5416 5415 5413 5411 5409 5407 5404 5402 5400 5397 5395 5393 5390 5387 5383 5380 5376 5373 5369 5366 5363 5360 5356 5353 5349 5346 5342 5339 5336 5333 5330 5327 5324 5320 5317 5316 5313 5311 5310 5308 5305 5303 5301 5298 5295 5292 5287 5282 5278 5274 5271 5268 5266 5263 5261 5258 5255 5252 5248 5245
5412 5410 5409 5407 5405 5403 5401 5398 5395 5393 5391 5389 5386 5384 5381 5377 5374 5371 5367 5364 5361 5357 5354 5351 5348 5344 5341 5338 5335 5332 5329 5326 5322 5319 5316 5312 5309 5308 5307 5305 5303 5301 5298 5296 5294 5291 5288 5285 5281 5276 5272 5268 5265 5262 5259 5256 5253 5250 5247 5244 5241 5238
5404 5403 5401 5399 5397 5395 5392 5389 5386 5384 5382 5380 5377 5375 5372 5368 5365 5362 5358 5355 5352 5349 5346 5342 5339 5336 5333 5330 5328 5325 5322 5318 5314 5311 5309 5306 5302 5300 5299 5298 5297 5294 5292 5289 5286 5283 5280 5277 5273 5269 5265 5261 5258 5254 5251 5248 5245 5242 5239 5236 5232 5229
5396 5395 5393 5391 5389 5386 5383 5380 5377 5375 5373 5371 5368 5366 5363 5359 5357 5353 5350 5346 5344 5340 5338 5334 5331 5328 5325 5322 5320 5318 5315 5312 5307 5302 5301 5299 5297 5294 5292 5291 5289 5287 5284 5282 5278 5275 5271 5268 5265 5261 5257 5253 5250 5246 5243 5239 5236 5232 5229 5226 5222 5219
5388 5386 5384 5382 5380 5378 5375 5372 5369 5366 5365 5362 5359 5357 5353 5350 5348 5345 5341 5338 5335 5332 5329 5326 5323 5321 5318 5315 5312 5310 5308 5306 5302 5297 5293 5291 5290 5289 5286 5284 5283 5281 5278 5275 5272 5269 5265 5261 5258 5254 5250 5246 5242 5239 5235 5232 5228 5224 5220 5216 5213 5210
5380 5378 5376 5374 5371 5369 5367 5363 5360 5359 5356 5354 5351 5348 5344 5341 5339 5336 5333 5330 5327 5325 5322 5319 5316 5313 5310 5307 5305 5302 5299 5298 5297 5294 5289 5285 5283 5282 5280 5279 5278 5276 5273 5269 5266 5262 5259 5255 5252 5248 5244 5240 5236 5232 5228 5225 5221 5217 5212 5208 5205 5202
5371 5369 5367 5365 5363 5361 5358 5355 5352 5351 5348 5346 5342 5339 5336 5333 5330 5327 5325 5322 5319 5317 5314 5311 5308 5305 5303 5300 5298 5295 5292 5289 5288 5287 5286 5282 5279 5277 5274 5272 5271 5269 5268 5264 5260 5256 5252 5248 5245 5241 5237 5233 5229 5225 5221 5217 5213 5209 5205 5201 5198 5195
5363 5361 5359 5356 5355 5352 5350 5347 5344 5342 5340 5337 5334 5331 5328 5325 5322 5319 5317 5314 5312 5310 5307 5304 5301 5298 5295 5293 5290 5288 5285 5282 5280 5279 5279 5278 5276 5274 5270 5267 5265 5262 5260 5258 5254 5250 5246 5242 5238 5234 5231 5227 5223 5219 5215 5211 5206 5201 5197 5193 5190 5188
5355 5353 5350 5348 5347 5344 5341 5338 5336 5334 5332 5329 5326 5324 5320 5317 5315 5312 5309 5307 5304 5302 5300 5297 5294 5291 5288 5286 5283 5281 5278 5276 5274 5273 5272 5271 5270 5269 5266 5264 5260 5257 5254 5251 5249 5245 5240 5236 5232 5228 5224 5220 5216 5212 5208 5204 5200 5195 5190 5186 5183 5180
5347 5344 5342 5340 5338 5336 5334 5331 5328 5327 5324 5321 5319 5316 5313 5310 5308 5305 5302 5300 5297 5294 5292 5289 5286 5284 5281 5279 5277 5274 5272 5270 5268 5267 5266 5265 5264 5262 5260 5258 5256 5252 5248 5245 5242 5238 5234 5230 5226 5221 5217 5213 5209 5205 5201 5198 5194 5190 5185 5181 5177 5174